Wind_Speed
6 6 5 4 4 3 2 2 5 6 5 6 7 7 7 7 8 8 7 8 7 7 7 7 7 7 7 7 7 7 8 8 8 8 9 9 8 8 8 8 7 7 6 5 4 3 3 2 2
6 6 6 6 6 8 6 3 6 8 8 8 9 9 9 7 8 9 9 9 9 8 8 8 8 8 8 8 8 8 9 9 10 10 10 10 10 9 9 9 9 8 8 7 6 5 5 4 4
8 8 8 7 7 8 10 9 9 8 10 9 11 11 10 9 10 10 10 10 10 10 9 8 9 9 9 9 10 10 10 11 11 11 11 11 11 11 10 10 10 10 9 9 9 8 7 7 6
11 10 10 9 7 9 12 13 10 8 11 11 13 12 9 9 10 10 10 11 10 10 10 10 11 11 11 11 12 12 12 12 12 12 12 13 13 13 12 12 11 11 11 11 10 10 9 9 8
14 13 13 12 12 15 15 14 12 10 12 13 15 14 12 10 11 11 11 11 10 10 12 12 13 12 12 13 13 13 14 14 14 14 15 14 15 15 14 13 13 13 13 13 12 12 11 10 10
16 15 15 13 16 17 19 18 16 14 13 15 16 15 15 12 11 11 12 12 12 11 13 13 14 14 14 15 15 15 15 15 16 16 17 16 16 16 16 16 15 15 14 14 14 13 13 12 12
19 18 17 14 17 21 22 21 19 18 15 17 17 19 18 13 11 12 14 15 15 14 15 15 16 16 16 17 17 17 17 17 18 18 18 18 18 18 17 17 17 17 16 15 15 15 14 14 14
20 21 18 16 15 20 24 24 22 19 21 20 21 22 18 14 12 14 15 17 17 16 17 17 17 18 18 19 19 19 20 20 20 19 20 20 20 20 20 20 20 19 18 17 17 17 17 16 15
22 22 19 16 16 19 26 25 22 20 23 23 22 24 22 18 15 16 17 18 19 19 18 19 19 19 19 20 21 21 21 22 21 22 22 22 22 22 22 22 21 20 18 18 19 18 18 17 17
21 22 20 19 21 22 25 24 21 19 21 23 23 22 21 21 19 18 19 19 20 20 20 20 21 21 21 21 22 23 23 23 23 24 24 24 24 23 23 23 21 20 19 19 19 20 19 19 18
20 21 22 24 25 27 27 24 22 20 22 24 22 18 19 20 20 20 20 19 19 21 22 22 22 23 23 23 23 23 24 23 22 23 24 25 24 23 23 21 20 21 21 20 20 21 21 20 20
18 19 20 23 25 26 26 26 24 23 27 27 22 17 18 20 22 20 18 19 21 22 23 23 24 24 24 23 23 22 22 22 23 22 21 22 22 23 22 21 20 19 19 20 20 21 21 21 21
15 15 17 19 20 23 24 26 25 24 25 25 25 23 20 21 21 20 21 20 21 22 23 23 23 24 23 23 21 21 22 23 23 22 21 21 21 21 21 21 20 20 19 19 20 21 22 22 22
12 13 14 15 16 19 21 22 23 25 23 23 22 21 21 21 20 19 20 21 23 24 23 24 24 23 23 22 21 20 21 21 22 21 21 21 20 21 21 20 20 21 21 21 22 22 22 23 23
11 11 11 12 13 14 17 19 21 21 19 19 20 20 21 22 22 21 21 22 23 23 24 24 23 22 22 22 20 20 21 21 21 21 20 21 21 20 20 21 21 21 22 22 22 22 21 22 22
11 12 12 11 11 12 14 18 18 17 15 16 17 19 20 20 21 21 22 22 23 23 23 22 21 21 22 21 19 19 20 21 20 20 20 20 21 22 22 22 23 23 24 23 23 22 22 22 22
13 15 14 10 9 11 14 15 14 11 12 14 16 17 18 17 19 20 21 21 21 20 20 20 20 20 21 19 18 17 18 19 19 20 20 21 21 22 22 22 22 23 23 23 23 23 24 24 24
12 14 14 10 9 10 12 9 7 6 9 13 14 16 18 18 18 19 18 17 17 17 18 19 19 20 19 17 17 17 18 19 19 20 20 21 22 23 23 23 23 23 24 24 25 25 25 26 26
11 11 11 9 8 9 9 8 7 7 9 12 13 14 15 15 16 16 15 15 16 17 17 17 17 17 16 16 17 18 19 20 20 21 21 21 22 23 24 24 25 25 25 26 27 27 27 28 28
9 12 11 10 8 8 8 8 7 5 9 11 11 12 11 11 12 13 14 15 15 14 14 14 15 15 15 16 18 19 21 22 22 22 22 23 23 23 24 25 26 26 27 27 28 28 29 30 31
11 11 9 9 9 8 7 6 7 5 7 6 7 9 10 10 11 12 13 13 12 11 12 13 14 14 16 17 18 20 21 22 22 22 23 23 23 24 25 25 26 27 28 28 29 29 30 31 32
10 9 8 9 12 11 10 7 5 6 7 6 6 6 6 7 8 9 9 9 10 11 12 13 14 15 17 18 20 21 21 22 23 23 24 24 24 25 25 26 26 28 29 29 30 30 31 31 31
9 9 8 11 14 13 10 8 6 5 5 5 4 5 6 6 7 7 9 10 11 12 12 13 15 17 18 19 21 22 23 24 24 24 24 25 25 25 26 26 27 29 30 30 31 31 32 32 32
8 9 11 13 14 10 7 9 9 6 4 3 3 5 5 6 7 8 9 11 12 13 13 15 16 18 19 20 22 23 24 24 24 25 25 25 26 26 26 27 28 29 30 30 31 31 32 33 33
9 10 13 15 10 5 6 7 7 8 7 7 7 7 7 8 9 10 10 11 13 14 15 17 18 19 21 22 23 24 25 25 25 25 26 27 27 28 28 29 29 30 30 31 31 31 32 33 34
9 9 12 13 12 6 6 9 8 8 8 8 9 9 9 9 10 10 11 13 14 15 16 18 19 21 22 23 23 24 25 25 26 27 27 28 29 30 30 31 31 31 31 31 32 32 33 33 34
8 7 9 11 11 5 4 8 6 7 7 7 8 9 10 11 11 12 13 14 15 17 18 19 20 21 22 23 24 25 26 27 27 28 28 29 30 31 31 31 32 32 32 32 32 33 33 34 35
7 6 5 7 11 10 7 7 10 10 9 9 10 11 12 12 13 14 14 16 17 18 19 20 21 22 23 24 25 26 27 27 27 28 29 30 31 31 32 32 32 32 32 33 33 34 34 35 35
7 6 7 6 6 9 9 11 12 12 11 10 11 12 12 13 13 13 14 16 17 18 19 20 21 22 23 24 26 27 28 28 28 29 29 30 31 32 32 32 33 33 32 33 33 34 34 34 35
7 7 6 6 3 3 9 12 12 12 11 11 12 13 13 14 14 14 15 16 18 19 20 21 21 23 24 25 26 27 28 29 29 30 30 31 32 33 33 34 34 33 33 34 34 33 33 34 34
Wind_Direction
353 350 348 343 328 313 95 72 294 297 295 294 296 288 286 293 298 302 311 306 310 310 312 315 319 318 319 321 320 321 321 318 315 311 307 303 299 296 294 294 292 293 292 292 293 294 296 301 303
324 319 315 313 313 328 324 289 283 288 289 294 289 288 293 297 309 307 304 306 309 309 309 313 320 321 322 323 321 319 317 316 313 310 306 303 298 294 290 288 287 288 289 289 287 284 282 285 285
302 298 300 299 303 309 297 295 292 290 291 288 284 282 288 302 307 310 308 309 310 311 313 317 321 320 319 319 317 313 313 314 311 308 306 303 299 296 291 287 286 287 288 290 289 284 279 278 275
289 288 286 278 278 266 273 279 285 288 285 286 278 274 281 295 303 309 311 313 313 315 318 321 324 319 318 316 314 312 309 309 310 310 307 302 297 293 289 286 284 285 287 287 287 285 279 275 272
281 279 278 281 277 268 266 270 274 273 274 274 274 276 284 289 298 306 310 312 317 323 321 322 323 321 318 318 317 312 310 308 305 306 304 301 297 290 285 283 280 281 281 283 283 281 278 275 271
275 272 270 273 282 273 268 269 270 266 264 272 275 279 279 284 289 298 304 306 312 321 318 318 318 316 315 313 312 311 310 305 302 301 300 296 293 289 283 280 278 280 280 279 279 276 274 272 268
272 269 264 258 272 277 276 277 273 263 261 263 268 270 272 269 283 295 299 301 305 314 314 316 315 313 311 310 309 307 306 302 299 297 295 292 290 287 283 280 275 277 279 277 277 274 272 270 267
269 266 261 256 262 277 274 275 272 266 265 261 264 267 270 277 288 293 295 296 301 308 311 312 312 311 309 307 306 304 300 299 296 295 292 289 287 284 278 277 273 273 275 274 273 272 270 268 267
267 263 259 254 248 263 267 268 268 266 266 266 262 266 276 281 285 288 290 293 298 304 307 308 310 309 306 304 302 300 298 296 293 293 291 287 284 282 277 275 271 271 271 269 269 269 267 266 264
266 261 255 245 238 247 258 262 261 264 262 259 255 258 269 279 281 283 287 292 296 300 305 307 307 305 303 302 300 297 295 294 291 288 287 285 283 282 279 275 271 270 271 267 265 264 264 263 262
271 264 254 244 239 243 251 257 261 262 257 257 257 254 265 272 276 279 283 289 293 298 303 305 306 303 302 301 299 296 296 297 296 291 285 284 281 282 282 278 276 272 270 267 265 262 261 260 261
281 273 262 252 250 250 251 252 253 253 252 254 256 261 265 270 272 273 277 285 289 295 300 302 302 302 302 302 300 298 297 300 299 295 292 287 286 283 282 279 277 275 272 271 271 266 262 260 261
285 281 276 269 264 261 256 250 247 250 253 256 261 267 270 270 271 277 282 289 292 295 298 300 302 303 302 302 300 298 298 300 299 295 292 290 290 284 283 281 279 274 271 272 273 269 268 264 265
282 278 273 268 265 263 263 253 243 245 251 256 261 264 270 270 275 282 285 289 292 295 298 302 303 304 303 302 300 297 298 300 299 295 293 292 292 288 285 283 282 276 273 271 273 271 271 267 267
308 296 286 278 276 268 266 255 244 244 249 252 257 262 266 269 273 280 286 288 291 294 296 298 302 302 303 303 300 299 296 296 297 294 292 293 293 293 290 285 282 279 277 275 274 271 268 268 267
328 314 303 289 284 272 259 251 245 231 241 249 256 259 263 267 272 279 284 289 291 293 294 298 301 302 304 302 299 299 299 298 298 296 294 294 293 293 291 288 284 279 277 277 275 273 270 269 265
333 324 321 315 293 273 265 261 248 235 250 252 259 262 266 270 273 279 284 289 290 290 293 298 300 303 303 302 300 300 302 301 301 301 300 296 295 294 291 290 287 282 279 276 274 273 271 270 267
323 310 305 305 296 285 282 272 263 234 251 256 264 268 271 275 276 280 284 288 287 290 293 298 301 304 303 302 302 304 304 304 303 303 303 299 297 296 291 290 288 283 280 277 275 273 272 269 267
299 290 287 292 290 285 284 282 265 262 267 266 270 276 279 282 282 284 287 290 290 291 292 298 302 306 306 307 307 307 306 306 305 304 303 300 297 296 293 292 288 285 282 279 276 275 273 270 267
287 293 302 296 301 292 288 278 279 280 286 273 278 287 285 282 280 284 290 292 294 296 300 305 310 311 313 314 312 310 310 309 308 306 304 303 300 297 294 292 289 286 283 280 278 275 273 271 269
289 291 306 311 295 283 268 281 292 280 291 289 275 280 287 283 284 289 298 301 302 306 310 314 317 318 321 321 318 315 313 311 310 308 306 304 302 299 297 294 291 288 285 283 280 277 274 272 270
298 292 297 296 286 283 274 284 307 283 277 287 298 301 305 312 301 295 303 314 323 324 324 327 328 325 325 324 321 319 318 316 314 312 310 307 305 302 299 297 294 291 288 285 282 279 276 273 270
290 288 281 276 273 278 293 305 313 306 284 267 297 313 313 327 319 319 327 329 329 329 330 330 331 330 329 326 324 323 321 319 317 315 313 311 309 306 304 301 297 293 290 287 284 280 277 275 272
293 285 279 277 272 285 316 321 331 337 322 332 341 351 338 350 345 340 335 333 333 335 333 335 333 332 331 329 327 326 325 323 320 318 316 314 312 309 307 304 301 297 293 290 286 282 279 276 274
296 295 294 306 308 339 346 330 347 353 3 360 3 1 349 351 349 344 342 340 339 339 337 335 333 332 332 331 330 329 327 325 322 320 318 316 314 312 310 307 303 300 296 292 289 286 282 278 276
291 300 311 318 336 343 355 336 358 4 360 359 2 357 356 353 348 344 343 342 341 338 336 335 334 333 333 332 331 330 329 327 325 322 320 318 316 314 312 309 306 302 298 294 291 288 285 281 278
285 289 299 312 325 306 311 327 3 358 356 353 347 347 347 347 344 343 342 342 340 339 338 337 336 335 334 334 333 332 330 328 326 324 322 320 318 316 314 310 307 303 300 296 292 289 287 283 280
282 283 289 312 324 327 309 306 349 345 344 342 340 339 339 340 342 343 341 340 339 338 338 337 337 336 336 336 335 334 332 330 327 325 323 321 320 319 317 313 310 306 302 298 295 291 288 285 282
276 276 270 262 279 320 325 314 329 335 336 333 330 330 333 335 337 338 338 337 336 336 337 336 336 337 337 337 335 334 333 331 329 328 326 324 323 321 319 315 312 309 305 301 298 295 291 287 283
248 259 262 260 256 310 307 296 313 323 324 327 327 328 331 331 333 335 335 335 335 335 336 336 336 337 337 336 335 335 334 333 331 330 328 326 324 323 320 316 314 310 307 304 302 299 295 290 285
Height
5921 5921 5920 5920 5919 5916 5913 5915 5917 5916 5915 5915 5914 5912 5912 5911 5911 5912 5909 5908 5908 5907 5907 5906 5906 5905 5905 5905 5904 5904 5904 5903 5903 5902 5902 5901 5901 5900 5900 5900 5899 5899 5899 5898 5898 5898 5898 5898 5898
5921 5920 5920 5919 5918 5914 5913 5913 5915 5915 5915 5913 5912 5911 5910 5910 5910 5909 5908 5908 5907 5907 5906 5906 5905 5905 5904 5904 5903 5903 5903 5902 5902 5902 5901 5901 5900 5900 5899 5899 5899 5898 5898 5898 5898 5898 5898 5898 5898
5919 5919 5919 5918 5917 5915 5914 5913 5912 5913 5913 5912 5911 5910 5909 5909 5909 5908 5907 5907 5906 5906 5905 5904 5904 5904 5903 5903 5902 5902 5902 5901 5901 5900 5900 5900 5899 5899 5898 5898 5898 5898 5897 5897 5897 5897 5897 5897 5897
5917 5917 5917 5917 5915 5915 5913 5913 5911 5912 5911 5910 5908 5906 5906 5907 5907 5907 5906 5905 5905 5905 5904 5903 5903 5903 5902 5902 5901 5901 5900 5900 5899 5899 5898 5898 5898 5897 5897 5897 5897 5896 5896 5896 5896 5896 5896 5896 5896
5914 5915 5915 5913 5913 5912 5910 5909 5909 5909 5908 5907 5905 5902 5903 5904 5905 5905 5904 5903 5903 5904 5903 5902 5902 5901 5901 5900 5900 5899 5898 5898 5898 5897 5897 5896 5896 5895 5895 5895 5895 5894 5894 5894 5894 5894 5895 5895 5895
5912 5912 5912 5911 5911 5910 5909 5906 5907 5907 5906 5904 5901 5901 5901 5902 5903 5903 5902 5901 5902 5902 5901 5901 5900 5899 5899 5898 5898 5897 5896 5896 5895 5895 5894 5894 5893 5893 5892 5892 5892 5892 5892 5892 5892 5892 5892 5893 5893
5909 5908 5908 5909 5910 5908 5906 5903 5904 5904 5902 5901 5899 5898 5897 5898 5900 5901 5900 5899 5899 5900 5899 5899 5898 5897 5897 5896 5896 5895 5894 5893 5893 5892 5892 5891 5891 5890 5890 5889 5889 5889 5889 5889 5889 5889 5890 5890 5891
5903 5904 5904 5906 5908 5908 5902 5900 5900 5899 5899 5899 5897 5894 5893 5894 5897 5898 5898 5896 5896 5897 5897 5896 5895 5895 5894 5894 5893 5892 5891 5890 5890 5889 5888 5888 5887 5887 5886 5886 5886 5886 5886 5886 5886 5886 5887 5887 5888
5898 5899 5900 5903 5905 5904 5897 5897 5895 5894 5895 5895 5893 5892 5891 5892 5895 5895 5895 5894 5893 5893 5894 5893 5892 5891 5891 5890 5889 5888 5887 5887 5886 5885 5884 5883 5883 5882 5882 5881 5881 5881 5882 5882 5882 5883 5883 5884 5885
5893 5893 5895 5897 5897 5896 5893 5891 5890 5891 5890 5889 5888 5888 5889 5890 5891 5892 5891 5891 5890 5890 5890 5890 5889 5887 5887 5886 5885 5884 5883 5882 5881 5881 5879 5878 5878 5877 5877 5876 5876 5876 5877 5877 5878 5878 5879 5880 5881
5887 5887 5888 5889 5889 5889 5887 5888 5888 5888 5886 5884 5882 5883 5887 5888 5888 5887 5887 5887 5887 5887 5887 5886 5885 5883 5882 5882 5880 5880 5879 5878 5877 5875 5874 5873 5872 5872 5872 5872 5871 5871 5872 5873 5873 5873 5874 5875 5876
5882 5881 5881 5882 5882 5882 5882 5883 5883 5882 5880 5880 5877 5879 5884 5884 5884 5883 5882 5882 5884 5883 5883 5882 5880 5879 5878 5877 5876 5875 5874 5873 5872 5870 5868 5867 5867 5867 5866 5866 5867 5867 5868 5868 5868 5868 5869 5870 5871
5877 5877 5876 5876 5876 5876 5876 5877 5878 5876 5876 5876 5877 5879 5881 5880 5880 5878 5878 5879 5880 5879 5878 5878 5875 5875 5873 5872 5871 5870 5869 5868 5867 5865 5864 5863 5863 5863 5863 5862 5862 5862 5863 5863 5863 5864 5864 5865 5866
5874 5873 5872 5872 5871 5871 5871 5870 5871 5870 5872 5873 5874 5875 5876 5876 5875 5874 5875 5877 5877 5876 5874 5874 5872 5871 5870 5868 5867 5866 5865 5864 5862 5861 5860 5859 5858 5858 5857 5857 5857 5858 5858 5858 5858 5858 5859 5860 5862
5871 5869 5868 5868 5867 5867 5867 5866 5865 5866 5868 5870 5872 5873 5873 5872 5873 5872 5873 5874 5873 5873 5871 5871 5869 5868 5866 5864 5863 5862 5861 5859 5858 5857 5856 5855 5854 5854 5853 5853 5853 5853 5853 5853 5853 5853 5854 5855 5856
5869 5867 5866 5865 5864 5863 5863 5861 5859 5861 5863 5866 5868 5869 5869 5869 5869 5870 5870 5870 5869 5869 5868 5867 5866 5864 5862 5861 5859 5858 5856 5855 5854 5853 5852 5851 5850 5849 5849 5848 5848 5847 5847 5848 5848 5848 5848 5849 5850
5868 5866 5864 5864 5862 5860 5858 5856 5854 5857 5860 5862 5864 5866 5865 5864 5864 5866 5866 5866 5866 5865 5864 5863 5862 5861 5859 5857 5856 5855 5853 5852 5851 5849 5848 5847 5846 5845 5844 5843 5843 5842 5842 5842 5842 5843 5843 5843 5843
5869 5867 5864 5863 5862 5859 5857 5855 5854 5857 5858 5859 5862 5863 5862 5861 5861 5862 5861 5862 5862 5862 5861 5860 5859 5857 5856 5854 5853 5851 5850 5849 5847 5845 5844 5843 5841 5840 5839 5838 5837 5837 5836 5836 5836 5836 5836 5837 5837
5869 5867 5864 5863 5861 5859 5856 5855 5853 5855 5858 5858 5859 5859 5858 5858 5859 5859 5859 5859 5859 5859 5858 5857 5856 5854 5853 5851 5849 5848 5846 5845 5843 5841 5840 5838 5837 5835 5834 5833 5832 5831 5830 5830 5830 5830 5830 5830 5831
5868 5866 5864 5864 5862 5859 5856 5854 5852 5854 5856 5855 5855 5856 5856 5856 5856 5856 5857 5857 5856 5856 5855 5854 5853 5851 5850 5847 5845 5844 5842 5840 5839 5837 5835 5833 5831 5830 5828 5827 5826 5825 5824 5823 5823 5822 5822 5823 5823
5867 5865 5863 5862 5861 5859 5857 5855 5854 5854 5854 5852 5853 5853 5853 5853 5854 5854 5854 5854 5853 5853 5852 5851 5850 5848 5846 5844 5842 5840 5838 5836 5834 5832 5830 5828 5826 5824 5822 5820 5819 5818 5817 5816 5815 5815 5815 5815 5815
5865 5864 5862 5861 5859 5856 5853 5851 5853 5853 5853 5852 5851 5851 5852 5852 5851 5852 5852 5852 5851 5850 5849 5848 5847 5845 5843 5841 5839 5837 5835 5833 5830 5827 5825 5823 5821 5818 5816 5814 5813 5811 5809 5808 5807 5806 5806 5806 5806
5864 5862 5860 5858 5855 5851 5850 5849 5850 5851 5851 5851 5851 5851 5851 5850 5850 5850 5850 5850 5849 5848 5847 5846 5844 5843 5840 5838 5836 5833 5830 5828 5825 5822 5820 5817 5815 5812 5810 5808 5806 5803 5802 5800 5799 5798 5797 5797 5797
5863 5862 5859 5856 5851 5850 5850 5851 5850 5849 5850 5848 5849 5850 5849 5849 5850 5849 5849 5848 5847 5846 5845 5844 5842 5840 5837 5835 5832 5829 5826 5823 5820 5817 5814 5811 5809 5806 5804 5801 5799 5796 5794 5792 5790 5789 5788 5787 5787
5862 5861 5858 5854 5849 5850 5852 5851 5850 5849 5849 5849 5848 5849 5849 5849 5849 5849 5848 5847 5846 5844 5843 5841 5839 5837 5834 5832 5829 5825 5822 5819 5816 5812 5809 5806 5803 5800 5797 5794 5791 5788 5786 5784 5782 5780 5779 5778 5777
5861 5859 5858 5855 5851 5851 5851 5851 5851 5850 5850 5849 5849 5850 5849 5849 5848 5848 5847 5845 5844 5843 5841 5839 5837 5834 5831 5828 5825 5822 5818 5815 5811 5807 5804 5800 5797 5793 5790 5786 5783 5780 5778 5775 5773 5771 5769 5768 5767
5860 5859 5858 5855 5851 5849 5850 5850 5851 5850 5851 5851 5851 5850 5849 5849 5847 5846 5845 5843 5842 5840 5838 5836 5834 5831 5828 5825 5821 5818 5814 5810 5806 5802 5799 5795 5791 5787 5783 5779 5775 5772 5769 5766 5764 5762 5760 5758 5757
5859 5858 5858 5857 5854 5852 5849 5848 5850 5851 5851 5851 5850 5849 5849 5847 5846 5844 5843 5842 5840 5838 5836 5833 5831 5828 5825 5821 5817 5814 5810 5806 5802 5798 5794 5789 5785 5780 5776 5772 5768 5764 5761 5757 5754 5752 5750 5748 5746
5857 5857 5856 5856 5855 5854 5850 5851 5850 5851 5850 5850 5849 5849 5848 5846 5845 5843 5842 5840 5838 5836 5833 5831 5828 5825 5822 5818 5814 5810 5806 5802 5798 5793 5789 5784 5779 5774 5769 5764 5760 5756 5752 5748 5745 5742 5739 5737 5735
5853 5854 5854 5855 5855 5855 5853 5853 5850 5849 5850 5849 5848 5847 5846 5845 5843 5842 5840 5839 5836 5834 5831 5828 5825 5822 5819 5815 5811 5807 5802 5798 5793 5788 5783 5778 5773 5768 5762 5757 5752 5748 5743 5739 5735 5732 5729 5726 5724